Flag for Germany Weather past 2 weeks in Minden, North Rhine-Westphalia, Germany

Now
64 °F

Partly sunny.


Feels Like: 64 °F
Forecast: 50 / 64 °F
Wind: 16 mph from Southwest

Location: Bueckeburg

Current Time: Aug 22, 2014 at 2:31:03 PM

Latest Report: Aug 22, 2014 at 1:20 PM


Visibility: N/A

Pressure: 29.86 "Hg

Humidity: 52%

Dew point: 46 °F

Location of MindenLocation

Historic Weather in Minden — Graph

°F

Minden temperature yesterday

Maximum temperature yesterday: 66 °F (at 1:20 PM)
Minimum temperature yesterday: 50 °F (at 4:20 AM)
Average temperature yesterday: 57 °F

Past Weeks' High & Low Weather Summary

 TemperatureHumidityPressure
High79 °F (Aug 8, 3:20 PM)100% (Aug 8, 3:20 AM)30.01 "Hg (Aug 8, 3:20 AM)
Low50 °F (Aug 20, 1:20 AM)38% (Aug 11, 5:20 PM)29.56 "Hg (Aug 10, 8:20 PM)
Average62 °F73%29.83 "Hg
* Reported Aug 7 1:20 PM — Aug 22 1:20 PM, Minden, Weather by CustomWeather, © 2014

Note: Actual official high and low records may vary slightly from our data, if they occured in-between our weather recording intervals... More about our weather records

Advertising

Minden weather history for previous 24 hours

 ConditionsComfort  
Time TempWeatherWind HumidityBarometerVisibility
1:20 PM
Aug 22
64 °FPartly sunny.16 mph52%29.86 "HgN/A
12:20 PM63 °FPartly sunny.10 mph56%29.86 "HgN/A
11:20 AM61 °FPartly sunny.9 mph59%29.89 "HgN/A
10:20 AM61 °FScattered clouds.13 mph59%29.89 "HgN/A
9:20 AM59 °FScattered clouds.13 mph63%29.89 "HgN/A
8:20 AM57 °FPartly sunny.10 mph67%29.89 "HgN/A
7:20 AM55 °FPartly sunny.12 mph72%29.89 "HgN/A
6:20 AM55 °FPartly cloudy.10 mph72%29.89 "HgN/A
5:20 AM55 °FPassing clouds.12 mph72%29.89 "HgN/A
4:20 AM55 °FPartly cloudy.9 mph72%29.92 "HgN/A
3:20 AM57 °FPassing clouds.9 mph67%29.92 "HgN/A
2:20 AM57 °FPassing clouds.10 mph67%29.92 "HgN/A
1:20 AM57 °FPassing clouds.2 mph67%29.95 "HgN/A
12:20 AM54 °FPassing clouds.6 mph77%29.95 "HgN/A
11:20 PM
Aug 21
54 °FPassing clouds.5 mph77%29.95 "HgN/A
10:20 PM55 °FPassing clouds.6 mph72%29.95 "HgN/A
9:20 PM59 °FPartly sunny.5 mph68%29.95 "HgN/A
8:20 PM59 °FPartly sunny.7 mph63%29.95 "HgN/A
7:20 PM64 °FPassing clouds.6 mph49%29.95 "HgN/A
6:20 PM64 °FPassing clouds.9 mph46%29.95 "HgN/A
5:20 PM64 °FPassing clouds.12 mph49%29.98 "HgN/A
4:20 PM64 °FPassing clouds.13 mph49%29.98 "HgN/A
3:20 PM63 °FScattered clouds.12 mph56%29.98 "HgN/A
2:20 PM61 °FScattered clouds.13 mph59%30.01 "HgN/A
Weather by CustomWeather, © 2014

See weather overviewHow to use our weather pages